When you browse on this site, cookies collect data to enhance your experience and personalize the content and advertising you see.
Visit our Privacy Policy to learn more. By continuing to use the site, you agree to this use of cookies and data.
  • In Portugal
  • List of Countries
  • For 7 days
  • Water Temperature
  • Satellite Maps
  • Weather Map
  • Weather Widgets
  • user-avatar
    Login

    Hourly Weather Sligo

    Today, 21 January, Monday

    Time Temperature Precipitation Wind Pressure Humidity
    00:00 +2°C° 0 mm 2 mps 766 mmHg 85%
    01:00 +1°C° 0 mm 3 mps 766 mmHg 86%
    02:00 +1°C° 0 mm 3 mps 765 mmHg 87%
    03:00 0°C° 0 mm 4 mps 765 mmHg 86%
    04:00 0°C° 0 mm 4 mps 764 mmHg 86%
    05:00 0°C° 0 mm 5 mps 763 mmHg 86%
    06:00 +1°C° 0 mm 6 mps 762 mmHg 86%
    07:00 0°C° 0 mm 7 mps 761 mmHg 86%
    08:00 +2°C° 0 mm 7 mps 760 mmHg 86%
    09:00 +1°C° 0.3 mm 8 mps 758 mmHg 86%
    10:00 +2°C° 0.3 mm 9 mps 757 mmHg 87%
    11:00 +2°C° 0.3 mm 9 mps 755 mmHg 87%
    12:00 +2°C° 2.1 mm 9 mps 754 mmHg 89%
    13:00 +3°C° 2.1 mm 9 mps 753 mmHg 91%
    14:00 +3°C° 2.1 mm 9 mps 752 mmHg 93%
    15:00 +2°C° 0.9 mm 8 mps 752 mmHg 87%
    16:00 +1°C° 0.9 mm 8 mps 751 mmHg 82%
    17:00 0°C° 0.9 mm 8 mps 751 mmHg 77%
    18:00 0°C° 0.3 mm 8 mps 751 mmHg 78%
    19:00 0°C° 0.3 mm 8 mps 752 mmHg 80%
    20:00 -1°C° 0.3 mm 8 mps 752 mmHg 81%
    21:00 -1°C° 0.5 mm 7 mps 752 mmHg 80%
    22:00 -1°C° 0.5 mm 6 mps 752 mmHg 79%
    23:00 -1°C° 0.5 mm 6 mps 751 mmHg 78%

    Tomorrow, 22 January, Tuesday

    Time Temperature Precipitation Wind Pressure Humidity
    00:00 -1°C° 0.3 mm 6 mps 751 mmHg 81%
    01:00 0°C° 0.3 mm 5 mps 750 mmHg 84%
    02:00 0°C° 0.3 mm 5 mps 750 mmHg 87%
    03:00 -1°C° 0.6 mm 6 mps 749 mmHg 86%
    04:00 -1°C° 0.6 mm 7 mps 749 mmHg 84%
    05:00 -1°C° 0.6 mm 7 mps 749 mmHg 82%
    06:00 -1°C° 0.4 mm 7 mps 749 mmHg 81%
    07:00 -1°C° 0.4 mm 7 mps 749 mmHg 81%
    08:00 -1°C° 0.4 mm 7 mps 749 mmHg 80%
    09:00 -1°C° 0.3 mm 7 mps 749 mmHg 80%
    10:00 -1°C° 0.3 mm 7 mps 750 mmHg 79%
    11:00 0°C° 0.3 mm 7 mps 750 mmHg 79%
    12:00 0°C° 0.2 mm 7 mps 750 mmHg 79%
    13:00 0°C° 0.2 mm 7 mps 750 mmHg 79%
    14:00 0°C° 0.2 mm 7 mps 749 mmHg 79%
    15:00 +1°C° 0.1 mm 6 mps 749 mmHg 81%
    16:00 -1°C° 0.1 mm 6 mps 750 mmHg 82%
    17:00 0°C° 0.1 mm 5 mps 750 mmHg 84%
    18:00 0°C° 0.1 mm 5 mps 750 mmHg 84%
    19:00 0°C° 0.1 mm 5 mps 750 mmHg 85%
    20:00 0°C° 0.1 mm 5 mps 750 mmHg 85%
    21:00 0°C° 0.1 mm 5 mps 751 mmHg 86%
    22:00 0°C° 0.1 mm 5 mps 751 mmHg 86%
    23:00 +1°C° 0.1 mm 5 mps 751 mmHg 87%

    Day after tomorrow, 23 January, Wednesday

    Time Temperature Precipitation Wind Pressure Humidity
    00:00 +1°C° 0.1 mm 5 mps 751 mmHg 87%
    01:00 +1°C° 0.1 mm 5 mps 752 mmHg 88%
    02:00 +1°C° 0.1 mm 5 mps 752 mmHg 88%
    03:00 +1°C° 0 mm 4 mps 752 mmHg 89%
    04:00 +1°C° 0 mm 4 mps 752 mmHg 89%
    05:00 +1°C° 0 mm 4 mps 752 mmHg 90%
    06:00 +2°C° 0 mm 3 mps 753 mmHg 90%
    07:00 +2°C° 0 mm 3 mps 753 mmHg 90%
    08:00 +2°C° 0 mm 3 mps 754 mmHg 90%
    09:00 +3°C° 0 mm 3 mps 754 mmHg 91%
    10:00 +3°C° 0 mm 3 mps 754 mmHg 91%
    11:00 +5°C° 0 mm 2 mps 755 mmHg 91%
    12:00 +5°C° 0 mm 2 mps 755 mmHg 92%
    13:00 +5°C° 0 mm 2 mps 755 mmHg 93%
    14:00 +4°C° 0 mm 3 mps 755 mmHg 94%
    15:00 +5°C° 0 mm 2 mps 755 mmHg 95%
    16:00 +4°C° 0 mm 2 mps 756 mmHg 95%
    17:00 +3°C° 0 mm 2 mps 756 mmHg 96%
    18:00 +4°C° 0 mm 2 mps 756 mmHg 96%
    19:00 +4°C° 0 mm 2 mps 756 mmHg 97%
    20:00 +3°C° 0 mm 3 mps 757 mmHg 97%
    21:00 +3°C° 0.1 mm 3 mps 757 mmHg 98%
    22:00 +3°C° 0.1 mm 3 mps 757 mmHg 98%
    23:00 +4°C° 0.1 mm 3 mps 757 mmHg 99%

    24 January, Thursday

    Time Temperature Precipitation Wind Pressure Humidity
    00:00 +4°C° 0.4 mm 3 mps 756 mmHg 99%
    01:00 +5°C° 0.4 mm 3 mps 756 mmHg 99%
    02:00 +7°C° 0.4 mm 3 mps 756 mmHg 99%
    03:00 +6°C° 0.2 mm 4 mps 756 mmHg 98%
    04:00 +7°C° 0.2 mm 5 mps 756 mmHg 98%
    05:00 +8°C° 0.2 mm 6 mps 756 mmHg 97%
    06:00 +8°C° 0.3 mm 6 mps 757 mmHg 97%
    07:00 +8°C° 0.3 mm 6 mps 757 mmHg 96%
    08:00 +9°C° 0.3 mm 7 mps 757 mmHg 96%
    09:00 +8°C° 0 mm 6 mps 758 mmHg 95%
    10:00 +8°C° 0 mm 6 mps 758 mmHg 94%
    11:00 +8°C° 0 mm 5 mps 758 mmHg 93%
    12:00 +8°C° 0.1 mm 6 mps 758 mmHg 94%
    13:00 +9°C° 0.1 mm 6 mps 758 mmHg 95%
    14:00 +9°C° 0.1 mm 6 mps 758 mmHg 95%
    15:00 +9°C° 0.1 mm 6 mps 759 mmHg 96%
    16:00 +8°C° 0.1 mm 5 mps 759 mmHg 96%
    17:00 +8°C° 0.1 mm 5 mps 759 mmHg 96%
    18:00 +8°C° 0.1 mm 5 mps 759 mmHg 96%
    19:00 +8°C° 0.1 mm 5 mps 760 mmHg 96%
    20:00 +8°C° 0.1 mm 4 mps 760 mmHg 96%
    21:00 +8°C° 0.1 mm 4 mps 759 mmHg 96%
    22:00 +8°C° 0.1 mm 4 mps 759 mmHg 96%
    23:00 +8°C° 0.1 mm 5 mps 759 mmHg 96%

    25 January, Friday

    Time Temperature Precipitation Wind Pressure Humidity
    00:00 +8°C° 0.1 mm 5 mps 759 mmHg 94%
    01:00 +8°C° 0.1 mm 5 mps 759 mmHg 93%
    02:00 +8°C° 0.1 mm 5 mps 758 mmHg 91%
    03:00 +8°C° 0 mm 5 mps 758 mmHg 91%
    04:00 +8°C° 0 mm 6 mps 758 mmHg 92%
    05:00 +7°C° 0 mm 6 mps 758 mmHg 93%
    06:00 +8°C° 0.2 mm 6 mps 758 mmHg 92%
    07:00 +8°C° 0.2 mm 6 mps 758 mmHg 92%
    08:00 +8°C° 0.2 mm 7 mps 758 mmHg 91%
    09:00 +8°C° 0.3 mm 6 mps 758 mmHg 92%
    10:00 +8°C° 0.3 mm 5 mps 758 mmHg 93%
    11:00 +7°C° 0.3 mm 4 mps 758 mmHg 93%
    12:00 +7°C° 0 mm 4 mps 758 mmHg 91%
    13:00 +7°C° 0 mm 4 mps 758 mmHg 90%
    14:00 +7°C° 0 mm 3 mps 758 mmHg 88%
    15:00 +7°C° 0.3 mm 3 mps 758 mmHg 89%
    16:00 +7°C° 0.3 mm 3 mps 757 mmHg 89%
    17:00 +5°C° 0.3 mm 3 mps 757 mmHg 90%
    18:00 +6°C° 0.3 mm 2 mps 757 mmHg 91%
    19:00 +6°C° 0.3 mm 2 mps 756 mmHg 91%
    20:00 +7°C° 0.3 mm 1 mps 756 mmHg 92%
    21:00 +5°C° 0.3 mm 2 mps 755 mmHg 93%
    22:00 +4°C° 0.3 mm 3 mps 754 mmHg 94%
    23:00 +4°C° 0.3 mm 3 mps 753 mmHg 95%

    26 January, Saturday

    Time Temperature Precipitation Wind Pressure Humidity
    00:00 +5°C° 2 mm 3 mps 751 mmHg 96%
    01:00 +6°C° 2 mm 4 mps 749 mmHg 96%
    02:00 +7°C° 2 mm 4 mps 747 mmHg 97%
    03:00 +7°C° 1.2 mm 4 mps 745 mmHg 96%
    04:00 +7°C° 1.2 mm 5 mps 743 mmHg 95%
    05:00 +8°C° 1.2 mm 5 mps 741 mmHg 94%
    06:00 +7°C° 0.2 mm 4 mps 741 mmHg 94%
    07:00 +8°C° 0.2 mm 3 mps 741 mmHg 94%
    08:00 +7°C° 0.2 mm 2 mps 740 mmHg 94%
    09:00 +6°C° 0.1 mm 5 mps 742 mmHg 92%
    10:00 +3°C° 0.1 mm 9 mps 743 mmHg 90%
    11:00 +3°C° 0.1 mm 12 mps 745 mmHg 88%
    12:00 +3°C° 0.3 mm 11 mps 746 mmHg 84%
    13:00 +2°C° 0.3 mm 10 mps 748 mmHg 80%
    14:00 +2°C° 0.3 mm 9 mps 749 mmHg 77%
    15:00 +1°C° 0 mm 8 mps 750 mmHg 78%
    16:00 +2°C° 0 mm 7 mps 751 mmHg 79%
    17:00 0°C° 0 mm 7 mps 752 mmHg 80%
    18:00 +1°C° 0 mm 6 mps 753 mmHg 80%
    19:00 +1°C° 0 mm 6 mps 753 mmHg 80%
    20:00 +1°C° 0 mm 6 mps 753 mmHg 80%
    21:00 +1°C° 0 mm 6 mps 753 mmHg 80%
    22:00 +1°C° 0 mm 6 mps 753 mmHg 79%
    23:00 -1°C° 0 mm 6 mps 753 mmHg 78%
    Show more